Wind_Speed
36 36 34 31 27 25 20 15 15 13 16 19 18 20 20 19 20 22 22 21 22 22 22 23 24 24 22 19 19 21 24 25 27 28 29 30 30 31 32 33 35 34 35 34
36 35 34 31 27 26 27 23 20 17 18 23 23 23 24 21 20 23 25 24 25 26 27 27 27 27 26 24 23 24 26 28 30 32 32 32 33 33 34 35 36 37 36 35
33 30 31 32 28 27 30 28 23 20 21 27 29 27 27 26 24 27 29 28 30 31 31 30 30 29 29 29 28 28 29 31 33 34 34 35 36 36 36 37 38 39 38 37
30 28 28 30 30 28 31 30 28 26 25 25 28 28 27 27 28 30 31 33 35 33 31 32 32 32 34 34 34 32 33 34 35 35 36 37 38 38 39 40 40 40 39 37
27 28 28 29 29 28 28 27 27 29 31 31 29 27 23 23 27 30 33 37 36 33 33 34 36 36 36 36 37 36 36 36 36 37 37 38 39 40 41 42 42 41 39 39
22 24 27 27 27 28 26 24 24 28 32 35 32 29 24 24 28 34 38 39 37 35 34 35 36 37 38 39 39 39 38 37 37 38 39 40 41 42 43 43 43 42 41 40
22 21 24 27 27 25 26 26 24 25 29 31 26 28 28 30 33 36 38 40 40 40 39 38 38 38 39 39 39 39 37 37 37 38 40 41 41 42 43 43 43 42 42 41
14 17 20 24 28 25 25 25 25 20 16 15 17 22 27 33 37 38 40 42 43 44 43 42 40 38 37 37 37 36 36 37 37 38 39 40 41 42 43 43 43 43 43 42
12 12 15 19 23 25 23 23 22 22 21 19 15 22 32 34 35 37 40 43 45 46 46 43 40 37 35 34 34 35 35 36 37 38 39 41 42 42 43 44 44 44 44 44
16 14 13 15 18 21 21 19 19 25 24 22 17 20 28 31 32 32 34 38 41 42 41 39 36 34 33 33 34 34 35 36 37 38 40 41 42 43 44 45 46 46 47 47
15 15 14 13 15 16 18 21 22 22 23 22 20 24 27 28 30 31 33 33 33 32 33 33 33 33 33 33 34 35 36 37 38 39 41 42 43 44 46 46 48 49 50 51
15 16 15 15 15 16 18 20 21 24 24 24 23 27 30 30 32 32 31 29 28 29 30 31 32 32 33 34 34 35 37 38 40 41 42 44 45 46 48 49 50 51 52 53
14 16 15 13 15 18 20 20 22 25 26 26 25 28 30 31 33 33 31 30 29 29 30 32 33 34 35 35 36 38 39 41 42 44 45 47 48 49 50 51 51 53 54 55
12 14 16 17 19 20 22 23 23 23 24 25 28 31 33 32 32 32 31 30 30 30 31 33 35 36 38 39 40 42 43 45 47 48 49 50 51 52 52 52 53 55 56 56
10 13 16 15 14 15 17 19 21 23 25 26 30 33 36 37 37 35 33 31 31 31 32 35 37 39 41 43 44 46 47 49 50 51 52 52 53 53 53 54 54 55 56 56
9 12 14 14 14 15 15 17 16 19 22 26 30 33 34 36 34 34 32 30 30 32 35 37 39 41 44 45 45 47 48 49 50 50 51 51 51 51 52 53 54 55 55 55
8 11 13 13 15 16 18 21 23 25 27 29 30 33 36 38 40 38 35 34 33 34 36 37 39 41 41 43 44 45 46 47 47 47 47 47 48 50 50 50 51 52 53 53
8 9 11 13 15 17 21 23 24 27 29 29 30 32 36 39 39 39 38 38 36 35 35 36 36 37 38 39 39 39 40 41 41 42 44 45 45 46 48 49 50 51 52 52
8 8 9 10 12 17 21 23 24 26 29 29 32 34 36 37 39 39 39 39 38 37 37 38 36 36 36 36 36 38 39 40 41 42 44 45 46 47 47 48 48 49 49 50
9 9 9 11 14 19 20 21 21 23 27 27 29 30 32 33 34 35 35 35 35 35 36 35 34 34 35 35 37 38 39 40 42 43 43 44 45 45 46 46 47 47 47 47
11 11 11 12 15 18 20 21 21 23 24 24 24 25 27 28 28 27 27 27 28 29 29 30 31 33 35 36 38 39 40 41 41 41 42 43 43 43 43 43 43 43 43 43
12 12 13 13 15 16 16 17 18 19 20 21 22 23 23 23 24 24 24 25 26 26 28 29 31 32 33 34 35 36 37 38 39 39 40 40 40 39 39 39 39 39 39 39
12 13 15 15 15 15 15 15 16 17 18 18 19 20 20 21 21 21 22 23 25 27 28 29 30 30 31 32 33 34 35 36 36 36 36 36 36 36 36 36 36 36 35 35
15 14 15 16 15 15 15 15 15 15 16 17 17 18 19 19 20 21 22 23 24 25 26 26 27 28 29 30 31 32 32 32 32 32 33 33 32 33 33 32 32 32 31 30
16 16 16 16 15 15 15 15 15 16 16 17 17 17 17 18 18 19 20 21 21 22 23 24 26 27 28 28 28 29 30 30 30 30 30 30 30 29 29 28 27 26 25 23
16 16 16 16 16 16 16 16 16 15 15 15 15 15 16 17 17 18 18 19 20 20 22 23 24 24 25 25 26 27 28 28 28 28 27 27 26 25 24 22 21 20 19 18
Wind_Direction
219 218 218 219 219 216 200 224 238 235 235 244 225 196 186 206 222 225 229 230 236 244 245 244 245 257 265 273 279 286 290 293 294 294 295 297 300 302 304 307 309 313 316 317
218 217 217 217 216 214 205 207 210 215 220 237 235 213 200 207 223 226 224 226 228 231 235 243 248 256 264 270 274 281 285 288 288 288 289 291 293 295 297 300 304 306 308 310
217 215 218 215 213 215 214 213 202 203 217 234 236 228 214 213 222 231 231 229 231 234 241 249 254 259 268 272 275 277 280 283 283 284 285 287 287 289 291 294 297 299 301 304
214 210 216 218 215 218 220 218 208 201 211 231 245 243 231 224 227 235 240 240 241 243 247 252 257 261 268 270 272 275 279 280 280 280 282 283 284 285 287 290 292 294 296 299
213 211 216 219 219 221 223 221 222 215 216 222 234 243 240 240 241 242 243 246 248 251 253 254 257 261 265 269 273 275 278 278 277 277 277 279 281 282 284 286 288 290 293 295
208 217 219 221 222 222 223 220 225 228 229 233 233 237 240 236 240 243 246 250 254 256 258 260 262 263 266 269 273 276 277 276 275 275 276 277 278 279 281 283 285 288 290 292
209 215 222 220 219 221 223 219 223 232 236 243 247 245 241 236 237 240 246 251 256 259 263 265 266 267 267 269 271 273 274 274 273 273 275 276 277 279 281 283 284 286 289 290
223 223 229 229 223 219 229 225 221 225 243 261 264 256 245 241 240 242 245 250 255 260 265 267 268 268 268 268 268 269 270 271 272 272 274 275 277 279 281 283 284 287 288 288
207 218 230 238 232 218 222 230 224 222 220 234 242 240 239 242 245 247 249 252 255 259 263 266 267 267 266 266 266 266 267 268 269 271 272 274 277 279 281 283 285 286 287 287
191 192 207 230 233 225 218 225 226 224 225 229 232 242 249 249 250 254 256 256 258 259 260 262 263 263 264 264 264 264 265 266 268 269 271 274 276 278 280 282 284 284 285 285
196 194 196 209 227 225 223 222 223 230 230 234 242 247 254 252 251 251 253 256 257 257 257 258 259 260 261 262 262 264 264 266 267 269 272 273 275 277 279 281 283 284 285 286
208 202 205 209 217 220 224 227 227 229 231 228 237 256 255 257 258 256 253 254 254 254 255 256 257 258 260 261 262 264 265 266 268 270 272 273 275 277 279 281 282 283 285 286
214 213 212 218 219 218 218 221 228 232 232 229 231 250 255 259 260 260 258 254 250 250 252 254 256 258 261 262 264 265 266 268 269 271 272 273 275 277 279 280 281 283 284 286
216 212 219 236 228 223 219 218 219 226 232 235 233 244 251 256 261 262 259 252 248 248 250 253 257 260 262 263 265 266 268 270 271 272 273 274 275 277 278 279 281 282 283 284
228 223 230 252 269 253 233 226 223 223 227 233 236 242 247 252 255 259 259 256 252 251 255 258 260 262 264 265 267 268 270 272 273 273 274 275 277 277 277 278 280 282 283 284
249 240 245 252 262 266 253 244 242 239 241 239 238 243 247 252 257 262 262 263 264 265 266 264 263 263 264 266 268 269 271 271 272 272 274 274 274 276 279 281 283 284 286 287
265 257 255 252 249 255 257 256 256 255 257 253 254 256 258 262 266 271 271 270 272 270 267 265 267 267 266 265 266 267 270 272 273 275 277 278 281 283 284 286 288 289 290 291
295 278 266 258 252 253 253 258 260 262 261 260 261 260 261 264 267 271 274 275 274 273 273 275 274 273 272 272 273 275 278 279 281 282 285 287 289 290 291 292 292 292 292 292
316 298 281 266 255 262 262 263 262 266 270 268 267 266 267 268 270 272 275 276 277 279 279 281 280 279 280 280 283 285 285 287 289 291 293 294 294 294 294 294 293 293 293 292
326 312 293 279 263 260 267 271 273 273 273 271 272 272 272 273 275 276 277 277 278 279 280 281 282 282 284 286 288 290 292 294 295 295 295 296 296 296 295 295 295 295 295 295
324 314 302 290 279 275 277 280 282 278 278 277 276 276 276 277 279 281 281 281 283 283 284 285 286 288 290 292 294 296 297 297 297 297 297 298 298 298 298 297 297 297 296 296
321 315 309 301 293 289 287 284 284 284 282 280 280 282 282 282 283 286 289 291 292 293 293 293 294 296 296 297 297 297 298 299 300 300 300 301 301 301 300 300 300 299 300 300
321 316 310 307 302 297 293 290 289 290 289 289 288 289 291 292 292 294 295 296 297 297 298 298 300 301 301 301 302 302 303 304 304 304 304 304 304 304 303 303 302 302 302 302
325 319 312 310 307 301 297 296 295 294 296 296 296 295 298 299 297 296 298 300 300 302 303 304 305 306 307 308 309 309 310 310 309 309 308 308 308 307 307 307 305 305 306 307
324 320 316 313 311 306 303 300 298 298 297 298 300 302 303 303 304 303 304 304 305 306 307 308 309 310 312 313 313 314 313 313 312 312 312 311 311 311 311 311 311 312 314 315
326 322 317 315 312 309 307 305 305 304 302 302 303 305 307 308 310 309 310 310 311 312 314 314 315 315 316 317 317 317 318 317 317 316 315 315 315 316 317 318 319 321 323 324
Height
5791 5798 5804 5810 5815 5820 5824 5831 5835 5840 5843 5844 5847 5851 5855 5860 5863 5865 5866 5867 5868 5868 5866 5866 5867 5867 5868 5870 5873 5874 5874 5873 5873 5872 5872 5871 5870 5869 5868 5866 5864 5862 5860 5859
5786 5793 5800 5804 5810 5815 5819 5824 5832 5839 5842 5842 5844 5848 5852 5855 5859 5860 5861 5862 5862 5862 5861 5861 5863 5863 5862 5865 5868 5869 5869 5868 5867 5866 5866 5865 5864 5863 5862 5860 5859 5857 5855 5854
5782 5790 5794 5799 5805 5810 5815 5820 5826 5834 5838 5837 5839 5842 5846 5851 5853 5855 5856 5856 5856 5855 5857 5858 5858 5859 5859 5860 5862 5864 5864 5863 5861 5860 5860 5859 5858 5857 5856 5855 5853 5851 5850 5847
5777 5784 5789 5794 5800 5805 5810 5815 5820 5825 5831 5833 5834 5837 5841 5845 5848 5848 5849 5850 5849 5852 5854 5854 5853 5854 5854 5855 5855 5857 5857 5856 5855 5854 5853 5852 5851 5850 5849 5848 5846 5844 5842 5841
5774 5780 5785 5790 5796 5800 5805 5810 5815 5819 5822 5826 5829 5831 5836 5840 5841 5841 5841 5841 5843 5847 5848 5849 5850 5850 5850 5849 5848 5849 5849 5848 5847 5846 5845 5844 5843 5842 5841 5840 5838 5837 5835 5833
5772 5777 5782 5787 5792 5796 5801 5806 5810 5813 5816 5819 5823 5826 5831 5834 5834 5832 5832 5834 5838 5840 5841 5842 5843 5844 5844 5843 5842 5841 5841 5840 5839 5838 5837 5836 5835 5834 5833 5831 5830 5828 5827 5825
5769 5774 5778 5782 5787 5792 5797 5801 5806 5808 5811 5814 5818 5820 5824 5823 5825 5825 5827 5829 5831 5832 5834 5835 5835 5835 5835 5835 5834 5833 5832 5832 5831 5830 5829 5827 5826 5825 5824 5822 5821 5820 5818 5817
5769 5774 5776 5778 5783 5788 5792 5797 5802 5806 5811 5814 5815 5815 5816 5816 5817 5819 5821 5822 5824 5825 5825 5826 5826 5826 5826 5826 5826 5825 5824 5823 5823 5822 5821 5819 5818 5817 5815 5813 5812 5811 5809 5807
5768 5772 5775 5776 5779 5784 5789 5792 5797 5801 5804 5806 5809 5809 5806 5807 5810 5813 5815 5815 5816 5816 5817 5817 5817 5817 5817 5817 5817 5817 5816 5816 5815 5814 5813 5812 5810 5808 5807 5804 5803 5801 5799 5797
5763 5768 5772 5774 5777 5780 5785 5789 5792 5795 5798 5800 5805 5804 5801 5801 5803 5805 5806 5806 5806 5807 5807 5807 5808 5808 5808 5809 5809 5808 5808 5808 5807 5806 5805 5804 5802 5800 5798 5796 5793 5791 5789 5787
5761 5765 5768 5772 5774 5778 5781 5784 5787 5791 5794 5797 5800 5799 5791 5792 5793 5795 5796 5796 5796 5797 5798 5798 5799 5799 5800 5800 5800 5800 5800 5799 5798 5797 5796 5794 5792 5790 5788 5786 5783 5781 5778 5775
5758 5762 5764 5768 5771 5774 5776 5779 5782 5785 5787 5789 5792 5792 5786 5787 5786 5785 5785 5786 5787 5789 5789 5790 5791 5791 5791 5791 5791 5791 5791 5790 5789 5788 5786 5784 5782 5780 5778 5775 5772 5769 5766 5763
5756 5759 5762 5765 5768 5769 5770 5773 5775 5777 5779 5781 5784 5784 5780 5780 5780 5777 5777 5778 5779 5780 5781 5782 5782 5783 5783 5782 5782 5781 5781 5780 5778 5777 5775 5773 5771 5768 5765 5762 5759 5756 5753 5750
5754 5756 5758 5759 5758 5759 5762 5765 5767 5770 5773 5775 5776 5774 5773 5772 5772 5769 5768 5768 5770 5771 5773 5774 5774 5774 5773 5773 5772 5771 5770 5768 5767 5765 5763 5760 5758 5755 5752 5749 5746 5743 5739 5736
5751 5753 5754 5753 5753 5754 5756 5759 5760 5762 5764 5766 5766 5766 5766 5766 5765 5761 5759 5759 5761 5762 5764 5764 5764 5764 5763 5762 5761 5759 5758 5756 5754 5752 5749 5747 5744 5742 5739 5736 5732 5729 5725 5722
5748 5750 5750 5751 5751 5752 5754 5754 5754 5755 5755 5756 5757 5758 5757 5757 5755 5753 5752 5752 5752 5754 5754 5754 5754 5753 5752 5750 5749 5747 5745 5743 5741 5738 5736 5733 5730 5728 5725 5722 5718 5715 5711 5707
5746 5746 5747 5748 5748 5748 5750 5748 5749 5749 5748 5750 5751 5752 5750 5749 5748 5746 5745 5746 5745 5745 5745 5744 5743 5742 5740 5738 5736 5734 5733 5731 5728 5725 5722 5720 5717 5715 5712 5708 5705 5701 5697 5693
5743 5743 5743 5744 5745 5745 5745 5743 5743 5743 5742 5742 5743 5744 5742 5741 5741 5739 5739 5739 5738 5738 5737 5735 5734 5732 5730 5727 5725 5723 5721 5719 5716 5713 5711 5708 5705 5702 5699 5695 5691 5687 5683 5679
5740 5740 5740 5740 5740 5739 5738 5737 5737 5737 5735 5736 5736 5736 5735 5734 5733 5733 5732 5731 5731 5730 5728 5727 5725 5723 5721 5718 5716 5713 5711 5708 5706 5702 5699 5696 5693 5690 5686 5682 5678 5674 5669 5665
5738 5737 5737 5736 5735 5734 5733 5732 5732 5732 5730 5730 5729 5728 5728 5727 5726 5726 5725 5724 5722 5721 5720 5718 5716 5715 5712 5709 5707 5704 5701 5698 5695 5692 5688 5685 5681 5678 5673 5669 5665 5660 5656 5651
5737 5735 5734 5732 5731 5729 5729 5728 5728 5728 5726 5724 5723 5722 5721 5720 5720 5719 5717 5716 5715 5714 5712 5710 5708 5706 5703 5701 5698 5695 5692 5689 5685 5681 5677 5673 5669 5665 5661 5656 5652 5647 5643 5638
5734 5732 5731 5729 5727 5728 5725 5724 5723 5722 5719 5718 5718 5717 5716 5715 5714 5713 5711 5710 5709 5707 5705 5703 5700 5698 5695 5692 5689 5686 5683 5679 5675 5671 5666 5662 5658 5654 5649 5645 5640 5635 5631 5626
5732 5730 5727 5726 5726 5722 5720 5719 5718 5716 5715 5714 5713 5712 5712 5711 5709 5708 5706 5705 5703 5701 5699 5696 5694 5691 5688 5684 5681 5678 5674 5669 5665 5661 5656 5652 5648 5643 5639 5635 5630 5625 5621 5617
5729 5727 5724 5722 5720 5719 5717 5716 5714 5713 5712 5711 5709 5708 5707 5706 5704 5703 5701 5700 5698 5695 5693 5690 5687 5684 5681 5677 5673 5669 5665 5661 5656 5652 5648 5644 5639 5635 5630 5625 5621 5617 5612 5608
5726 5724 5722 5719 5717 5715 5714 5712 5711 5710 5708 5707 5705 5704 5703 5701 5700 5698 5696 5694 5692 5690 5687 5684 5681 5678 5674 5671 5667 5663 5659 5654 5650 5645 5641 5636 5632 5627 5623 5618 5614 5609 5605 5601
5724 5722 5719 5717 5715 5713 5711 5709 5707 5706 5705 5703 5702 5701 5699 5697 5696 5694 5692 5690 5688 5685 5682 5679 5676 5673 5669 5666 5662 5658 5653 5648 5644 5639 5634 5630 5626 5621 5617 5613 5609 5605 5601 5597